Regional Weather Roundup
Issued by NWS San Diego, CA

Home | Current Version | Previous Version | Text Only | Print | Product List | Glossary On
Versions: 1 2 3 4 5 6 7 8 9 10 11 12 13 14 15 16 17 18 19 20 21 22 23 24 25 26 27 28 29 30 31 32 33 34 35 36 37 38 39 40 41 42 43 44 45 46 47 48 49 50
000
ASUS46 KSGX 260110
RWRSGX

SAN DIEGO HOURLY WEATHER ROUNDUP
NATIONAL WEATHER SERVICE SAN DIEGO CA
500 PM PST TUE NOV 25 2014

NOTE: "FAIR" INDICATES FEW OR NO CLOUDS BELOW 12,000 FEET WITH NO
SIGNIFICANT WEATHER AND/OR OBSTRUCTIONS TO VISIBILITY.

CAZ042-043-060-061-PZZ750-775-260200-

GREATER SAN DIEGO AREA

CITY           SKY/WX    TMP DP  RH WIND       PRES   REMARKS
LINDBERGH FLD  PTCLDY    72  17  12 N6        30.26S
POINT LOMA       N/A     67  30  25 NW12        N/A
NATIONAL CITY    N/A     73  19  13 N3        30.25S
CHULA VISTA      N/A     73  37  26 CALM      30.18S
IMPERIAL BEACH CLEAR     70  35  27 NW9       30.25S
BROWN FIELD    CLEAR     69  32  25 NW5       30.25S
MIRAMAR MCAS   CLEAR     68  13  12 NW6       30.26S
MONTGOMERY FLD PTCLDY    70  14  11 NW7       30.26S

$$

NORTH SAN DIEGO COUNTY

CITY           SKY/WX    TMP DP  RH WIND       PRES   REMARKS
CAMP PENDLETON CLEAR     72   8   8 W9        30.24S
OCEANSIDE AP   CLEAR     69  29  22 W10       30.24S
OCEANSIDE HBR    N/A     67  56  67 NW3       30.27S
VISTA            N/A     72  19  13 CALM      30.24S
CARLSBAD       CLEAR     68  40  35 CALM      30.25S
DEL MAR          N/A     66  48  52 CALM      30.28S
FALLBROOK        N/A     72  12  10 CALM      30.26S
ESCONDIDO        N/A     71  21  15 W3        30.27R
SAN MARCOS       N/A     71  22  15 CALM      30.24S
POWAY            N/A     68  25  20 CALM      30.28R

$$

EAST SAN DIEGO COUNTY

CITY           SKY/WX    TMP DP  RH WIND       PRES   REMARKS
RAMONA         PTCLDY    58  21  24 NW7       30.28R
SANTEE LAKES     N/A     71  21  15 CALM      30.27R
LA MESA          N/A     72  29  20 NW3       30.19S
JAMUL            N/A     69  23  17 CALM      30.25S
DESCANSO N       N/A     59  22  23 CALM      30.19R
MT. LAGUNA OBS   N/A     55  -8   7 N2        29.94S
CAMPO            N/A     60   2   9 E12       30.28S

$$

ORANGE COUNTY AND THE LOS ANGELES BASIN

CITY           SKY/WX    TMP DP  RH WIND       PRES   REMARKS
JOHN WAYNE AP  CLEAR     73  28  18 CALM      30.26R
LAKE FOREST FR   N/A     70  25  18 CALM      30.17R
SANTA ANA        N/A     71  34  25 CALM      30.21R
HUNTINGTON BCH   N/A     67  51  56 W7        30.27S
LOS ALAMITOS   CLEAR     66  46  48 SW2       30.26R
FULLERTON      CLEAR     74  17  11 W3        30.25R
LONG BEACH     CLEAR     73  16  11 W10       30.26R
L.A. AP        CLEAR     66  47  50 SW5       30.27S
L.A. DOWNTOWN  FAIR      70  25  18 VRB3      30.26R

$$

THE INLAND EMPIRE

CITY           SKY/WX    TMP DP  RH WIND       PRES   REMARKS
CORONA         CLEAR     65  32  29 CALM      30.27R
CHINO          PTCLDY    69  20  15 CALM      30.27S
ONTARIO        PTCLDY    72  11   9 CALM      30.27S
SAN BERNARDINO CLEAR     72  12  10 S3        30.27S
RIVERSIDE AP   PTCLDY    74  14  10 CALM      30.27S
RIV CYN CREST    N/A     75  32  20 S1          N/A
MORENO VALLEY    N/A     69  24  18 CALM      29.45S
MARCH ARB      CLEAR     64   8  11 VRB1      30.29S
HORSETHIEF CYN   N/A     65   2   8 S3        30.30S
PERRIS           N/A     69  20  15 CALM      30.29S
MENIFEE          N/A     71  24  17 N2        30.34S
HEMET EAST       N/A     68  12  11 CALM      30.29S
FRENCH VALLEY  FAIR      68  10  10 NE3       30.28S
TEMECULA         N/A     72  24  16 CALM      30.23R

$$

SAN BERNARDINO AND RIVERSIDE COUNTY MOUNTAINS

CITY           SKY/WX    TMP DP  RH WIND       PRES   REMARKS
BIG BEAR AP    PTCLDY    48  10  21 CALM      30.49S
PINE COVE        N/A     53   9  17 CALM      30.27S

$$

SOUTHERN DESERT INCLUDING THE COACHELLA VALLEY

CITY           SKY/WX    TMP DP  RH WIND       PRES   REMARKS
PALM SPRINGS   PTCLDY    69  26  20 E5        30.33S
PALM DESERT      N/A     68  31  25 CALM      29.20S
THERMAL        PTCLDY    58  34  40 CALM      30.29F
BLYTHE         CLEAR     65  15  14 SE5       30.31S
IMPERIAL AP    PTCLDY    66  21  18 W3        30.30S
EL CENTRO NAS  PTCLDY    67  12  12 CALM      30.30S
YUMA AZ        CLEAR     66  25  21 W5        30.30R
MEXICALI       CLEAR     68   7   9 NW5       30.31

$$

UPPER DESERT

CITY           SKY/WX    TMP DP  RH WIND       PRES   REMARKS
VICTORVILLE AP PTCLDY    61   7  11 N3        30.38S
HESPERIA         N/A     59  13  16 CALM      30.53S
APPLE VALLEY     N/A     61   7  11 CALM      30.37R
PALMDALE       CLEAR     61  13  15 CALM      30.37R
LANCASTER      PTCLDY    59   8  13 NE5       30.36S
EDWARDS AFB    CLEAR     60   6  11 NE2       30.34F
DAGGETT        PTCLDY    64   1   8 W3        30.35S
29 PALMS N     PTCLDY    63   6  10 CALM      30.41R
NEEDLES        CLEAR     61  11  14 NW5       30.32S

$$

REGIONAL REPORTS

CITY           SKY/WX    TMP DP  RH WIND       PRES   REMARKS
SANTA BARBARA  CLEAR     66  48  52 W9        30.26S
SANDBERG       PTCLDY    59  -2   8 NW24      30.42S
MT. WILSON       N/A     59   3  10 E1          N/A
LAS VEGAS NV   CLEAR     59  16  18 S5        30.32S
PHOENIX AZ     CLEAR     62   7  11 SW3       30.28S
TIJUANA        CLEAR     68  27  21 W7        30.26F
ENSENADA NW      N/A     66  32  28 E3        30.22S

$$

OFFSHORE ISLANDS

CITY           SKY/WX    TMP DP  RH WIND       PRES   REMARKS
CATALINA ARPT  CLEAR     83  18   9 W9        30.31F
SAN CLEMENTE I CLEAR     66  52  60 W6        30.28F
SAN NICOLAS IS CLEAR    N/A N/A N/A W12       30.28F

$$

MARINE AND OFFSHORE BUOY REPORTS

STATION/POSITION SKY/WX   TEMP    WIND        PRES    SWELL
                          AIR SEA DIR/SP/G            HT/PER/DIR
                          (F)     (DEG/KT/KT) (MB)    (FT/S/D)
TANNER BANKS               66 66  290/  2/  4 1025.5S   7/320/13
S CLEMENTE BASIN           67 67  300/  8/ 10 1024.6F   5/290/13
SAN NICOLAS IS.               64                N/A     5/300/13
SO. S. ROSA ISLA           64 65  290/  6/  8 1025.1R   5/15
W. S. BARBARA CH           64 64  310/ 10/ 12 1024.9F   5/300/14
M. S. BARBARA CH           67 67  290/  8/ 10 1025.4F
S. MONICA BASIN            67 67  270/  8/ 10 1025.3F   3/280/12
S PEDRO CHANNEL               65                N/A     3/260/13
DANA POINT                    66                N/A     2/270/13
CMP PENDLETON NS              66                N/A     2/230/13
OCEANSIDE OFFSHR              66                N/A     2/230/13
TORREY PINES OTR              67                N/A     3/280/14
LA JOLLA 1                 68 66   10/  5/  6 1024.7S
MISSION BAY BUOY              67                N/A     3/280/13
SAN DIEGO BAY                 67              1024.9S
POINT LOMA SOUTH              67                N/A     2/280/14

$$




USA.gov is the U.S. government's official web portal to all federal, state and local government web resources and services.